カタログに戻る

STARLINK-3793

運用中通信VLEO
NORAD 52380·PAYLOAD·🇺🇸 United States

打ち上げ Apr 29, 2022 から Cape Canaveral Space Force Station

Loading…

次のパス (今後24時間)

TLE

最新Source: CelesTrak SupGP

元期: Sep 15, 2026, 02:02 UTC

1 52380C 22045BB  26258.08520833 -.00029757  00000+0 -87906-3 0  2585
2 52380  53.1596  34.6824 0000971 115.2845 305.9837 15.34410469    12

AllMySatでSTARLINK-3793をリアルタイム追跡

Download on the App Store